Flag for U.S.A. Weather past 2 weeks in Lakewood, New Jersey, U.S.A.

Now
46 °F

Sunny.


Feels Like: 44 °F
Forecast: 33 / 59 °F
Wind: 5 mph from Southwest

Location: Belmar-Farmdale

Current Time: Oct 20, 2014 at 10:08:30 AM

Latest Report: Oct 20, 2014 at 9:35 AM


Visibility: 10 mi

Pressure: 30.14 "Hg

Humidity: 50%

Dew point: 28 °F

Location of LakewoodLocation

Historic Weather in Lakewood — Graph

°F

Lakewood temperature yesterday

Maximum temperature yesterday: 55 °F (at 11:15 AM)
Minimum temperature yesterday: 39 °F (at 11:15 PM)
Average temperature yesterday: 50 °F

Past Weeks' High & Low Weather Summary

 TemperatureHumidityPressure
High75 °F (Oct 14, 12:35 PM)88% (Oct 8, 1:35 AM)30.35 "Hg (Oct 8, 1:35 AM)
Low36 °F (Oct 20, 3:35 AM)31% (Oct 9, 2:15 PM)29.59 "Hg (Oct 18, 2:55 PM)
Average60 °F66%29.99 "Hg
* Reported Oct 5 8:15 AM — Oct 20 8:55 AM, Lakewood, Weather by CustomWeather, © 2014

Note: Actual official high and low records may vary slightly from our data, if they occured in-between our weather recording intervals... More about our weather records

Advertising

Lakewood weather history for previous 24 hours

 ConditionsComfort  
Time TempWeatherWind HumidityBarometerVisibility
8:55 AM
Oct 20
43 °FSunny.No wind53%30.13 "Hg10 mi
8:35 AM39 °FSunny.3 mph61%30.13 "Hg10 mi
7:55 AM37 °FClear.6 mph60%30.12 "Hg10 mi
7:35 AM37 °FClear.6 mph60%30.12 "Hg10 mi
7:15 AM37 °FClear.6 mph65%30.11 "Hg10 mi
6:55 AM37 °FClear.6 mph65%30.11 "Hg10 mi
6:35 AM37 °FClear.5 mph60%30.11 "Hg10 mi
6:15 AM37 °FClear.5 mph65%30.11 "Hg10 mi
5:55 AM37 °FClear.6 mph65%30.11 "Hg10 mi
5:35 AM36 °FClear.No wind70%30.11 "Hg10 mi
5:15 AM36 °FClear.No wind70%30.10 "Hg10 mi
4:55 AM36 °FClear.No wind70%30.10 "Hg10 mi
4:35 AM36 °FClear.No wind70%30.10 "Hg10 mi
4:15 AM37 °FClear.No wind65%30.09 "Hg10 mi
3:55 AM37 °FClear.3 mph65%30.09 "Hg10 mi
3:35 AM36 °FClear.3 mph70%30.09 "Hg10 mi
3:15 AM37 °FClear.3 mph65%30.09 "Hg10 mi
2:55 AM37 °FClear.3 mph65%30.09 "Hg10 mi
2:35 AM37 °FClear.3 mph65%30.09 "Hg10 mi
2:15 AM39 °FClear.5 mph61%30.10 "Hg10 mi
1:55 AM39 °FClear.6 mph56%30.09 "Hg10 mi
1:35 AM39 °FClear.3 mph61%30.08 "Hg10 mi
11:15 PM
Oct 19
39 °FClear.3 mph61%30.07 "Hg10 mi
10:55 PM41 °FClear.No wind57%30.07 "Hg10 mi
10:35 PM41 °FClear.5 mph57%30.06 "Hg10 mi
10:15 PM41 °FClear.No wind57%30.06 "Hg10 mi
9:55 PM41 °FClear.No wind57%30.06 "Hg10 mi
9:35 PM43 °FClear.3 mph53%30.06 "Hg10 mi
9:15 PM43 °FClear.3 mph53%30.06 "Hg10 mi
8:55 PM43 °FClear.6 mph53%30.06 "Hg10 mi
8:35 PM45 °FClear.3 mph49%30.05 "Hg10 mi
8:15 PM45 °FClear.5 mph49%30.04 "Hg10 mi
7:55 PM45 °FClear.7 mph49%30.04 "Hg10 mi
7:35 PM46 °FClear.7 mph43%30.03 "Hg10 mi
7:15 PM46 °FClear.6 mph46%30.02 "Hg10 mi
6:55 PM48 °FSunny.9 mph40%30.01 "Hg10 mi
6:35 PM48 °FSunny.10 mph40%30.01 "Hg10 mi
6:15 PM48 °FSunny.10 mph43%30.00 "Hg10 mi
5:55 PM50 °FSunny.14 mph40%29.98 "Hg10 mi
5:35 PM52 °FSunny.15 mph38%29.97 "Hg10 mi
5:15 PM52 °FSunny.17 mph38%29.97 "Hg10 mi
4:55 PM52 °FSunny.16 mph38%29.96 "Hg10 mi
4:35 PM54 °FSunny.16 mph35%29.95 "Hg10 mi
4:15 PM54 °FSunny.17 mph35%29.94 "Hg10 mi
3:55 PM54 °FSunny.20 mph33%29.94 "Hg10 mi
3:35 PM54 °FSunny.16 mph35%29.93 "Hg10 mi
3:15 PM54 °FSunny.18 mph38%29.92 "Hg10 mi
2:55 PM54 °FSunny.18 mph38%29.91 "Hg10 mi
2:35 PM55 °FSunny.15 mph36%29.91 "Hg10 mi
1:55 PM54 °FPassing clouds.23 mph38%29.91 "Hg10 mi
1:35 PM54 °FPassing clouds.21 mph41%29.91 "Hg10 mi
1:15 PM54 °FScattered clouds.20 mph44%29.90 "Hg10 mi
12:55 PM55 °FScattered clouds.21 mph44%29.90 "Hg10 mi
12:35 PM55 °FScattered clouds.20 mph44%29.90 "Hg10 mi
12:15 PM54 °FScattered clouds.18 mph47%29.90 "Hg10 mi
11:55 AM54 °FBroken clouds.22 mph47%29.91 "Hg10 mi
11:35 AM55 °FBroken clouds.16 mph47%29.91 "Hg10 mi
11:15 AM55 °FBroken clouds.18 mph47%29.90 "Hg10 mi
10:55 AM54 °FPartly sunny.16 mph51%29.90 "Hg10 mi
10:35 AM52 °FOvercast.18 mph54%29.90 "Hg10 mi
10:15 AM52 °FOvercast.14 mph54%29.89 "Hg10 mi
Weather by CustomWeather, © 2014

See weather overviewHow to use our weather pages